Regional Weather Roundup
Issued by NWS

Current Version | Previous Version | Text Only | Print | Product List | Glossary On
Versions: 1 2 3 4 5 6 7 8 9 10 11 12 13 14 15 16 17 18 19 20 21 22 23 24 25 26 27 28 29 30 31 32 33 34 35 36 37 38 39 40 41 42 43 44 45 46 47 48 49 50
000
ASUS45 KABQ 311910
RWRNM
WEATHER ROUNDUP FOR NEW MEXICO
NATIONAL WEATHER SERVICE ALBUQUERQUE NM
1200 PM MST SAT JAN 31 2015

NOTE: "FAIR" MEANS FEW OR NO CLOUDS BELOW 12,000 FEET AGL WITH NO
       SIGNIFICANT WEATHER OR OBSTRUCTIONS TO VISION.

      THIS PRODUCT IS RELEASED AS TWO VERSIONS.  ONE VERSION NEAR
      THE TOP OF THE HOUR CONTAINING PRELIMINARY DATA FROM ALBUQUERQUE
      AND OTHER STATIONS.  A FINAL VERSION WITH ADDITIONAL DATA IS
      ISSUED ABOUT 10 MINUTES AFTER THE HOUR.

NMZ501-503-504-510>518-312000-
NORTHWEST PLATEAU/NORTHCENTRAL MOUNTAINS

CITY           SKY/WX    TMP DP  RH WIND       PRES   REMARKS
FARMINGTON     CLOUDY    36  34  92 W6        29.91F WCI  31
LOS ALAMOS     CLOUDY    32  32 100 SE5       29.90F WCI  27
SANTA FE       LGT SNOW  32  28  85 SE7       29.90F FOG     WCI  26
TAOS           CLOUDY    30  27  86 CALM      29.89F
ANGEL FIRE     CLOUDY    35  31  85 W12       29.83F WCI  27

$$
NMZ402-403-502-505>509-312000-
WESTCENTRAL MOUNTAINS/SOUTHWEST MOUNTAINS

CITY           SKY/WX    TMP DP  RH WIND       PRES   REMARKS
GALLUP         CLOUDY    36  34  92 W5        29.92F WCI  32
GRANTS         CLOUDY    37  32  83 SE5       29.93F WCI  33
SILVER CITY    CLOUDY    45  43  93 S5        29.93F

$$
NMZ407-409-411-412-312000-
SOUTHERN DESERTS

CITY           SKY/WX    TMP DP  RH WIND       PRES   REMARKS
LORDSBURG      DRIZZLE   46  45  93 SE7       29.90F
DEMING         CLOUDY    49  44  83 CALM      29.91F
LAS CRUCES     CLOUDY    46  45  96 S7        29.92F
HOLLOMAN AFB   CLOUDY    45  45 100 CALM      29.90F
ALAMOGORDO     LGT RAIN  45  45 100 CALM      29.93F
T OR C         LGT RAIN  45  42  89 S6        29.90F

$$
NMZ519>523-312000-
CENTRAL VALLEYS/CENTRAL HIGHLANDS

CITY           SKY/WX    TMP DP  RH WIND       PRES   REMARKS
ALBUQUERQUE    CLOUDY    36  35  96 NW5       29.93F FOG     WCI  32
DOUBLE EAGLE   FLURRIES  32  30  93 CALM      29.93F
MORIARTY ARPT  CLOUDY    34  31  91 CALM      29.91F
CLINES CORNERS CLOUDY    34  32  92 SW12      29.87F WCI  25
BELEN          CLOUDY    38  37  96 NW5       29.93F WCI  35
SOCORRO        CLOUDY    40  38  94 N6        29.92F

$$
NMZ524>526-539-540-312000-
SOUTHCENTRAL MOUNTAINS

CITY           SKY/WX    TMP DP  RH WIND       PRES   REMARKS
RUIDOSO        PTSUNNY   45  45 100 SW16G30   29.91F

$$
NMZ527>531-312000-
NORTHEAST HIGHLANDS/NORTHEAST PLAINS

CITY           SKY/WX    TMP DP  RH WIND       PRES   REMARKS
LAS VEGAS      CLOUDY    32  31  96 S17       29.85F WCI  21
RATON          CLOUDY    31  28  89 CALM      29.84F
CLAYTON        CLOUDY    37  33  85 SW14      29.85F WCI  28

$$
NMZ532>537-312000-
EASTCENTRAL PLAINS

CITY           SKY/WX    TMP DP  RH WIND       PRES   REMARKS
TUCUMCARI      CLOUDY    40  37  89 SW10      29.91F WCI  33
CANNON AFB     LGT RAIN  37  37  99 CALM      29.92F
CLOVIS AIRPORT CLOUDY    36  36 100 S10       29.92F WCI  28

$$
NMZ028-029-538-312000-
SOUTHEAST PLAINS

CITY           SKY/WX    TMP DP  RH WIND       PRES   REMARKS
ROSWELL        CLOUDY    42  38  85 S3        29.92F
ARTESIA        CLOUDY    43  43 100 CALM      29.94F
CARLSBAD       CLOUDY    45  41  86 N8        29.92F
HOBBS          FOG       43  43 100 SE7       29.94F VSB 1/4


$$



USA.gov is the U.S. government's official web portal to all federal, state and local government web resources and services.